Вернуться в каталог

SL-8 DEB

АктивенLEO
NORAD 18698·DEBRIS·🇷🇺 Russia

Запущен Dec 1, 1987 с Plesetsk Cosmodrome

Loading…

Ближайшие Пролёты (ближайшие 24 часа)

TLE

СвежийSource: Space-Track

Эпоха: Sep 14, 2026, 06:22 UTC

1 18698U 87098D   26257.26592199  .00000898  00000-0  22757-3 0  9990
2 18698  73.9826  56.0817 0013022 305.2719 112.0842 14.52343042 35735

Отслеживайте SL-8 DEB в реальном времени с AllMySat

Download on the App Store